CYXYPAJN

Guest
Details From CYXY - Whitehorse Intl
To PAJN - Juneau Intl
Flight Number -
Tags Generated
Created
Modified
Stats Distance 142 nm / 263 km
Max Altitude 0 ft / 0 m
Waypoints 2
Social Downloads 0
Likes 0
Share VATSIM

Download

Looking for another format? Having issues loading an existing format? Contact us
Advertisement - Login to hide

Notes

Generated

Route

CYXY PAJN

ID Type Via Altitude Latitude Longitude Leg Dist Tot Dist Heading (true) Name
O CYXY APT - 0 ft / 0 m 60.71102˚ -135.07253˚ - 0 nm - WHITEHORSE INTL
O PAJN APT - 0 ft / 0 m 58.35793˚ -134.59756˚ 142 nm 142 nm 174° / 174° -

Altitude Profile

Advertisement - Login to hide

CYXY

Details ICAO CYXY (YXY)
Name WHITEHORSE INTL
Region Canada
Timezone America/Whitehorse (UTC-7.0)
Stats Elevation 2,317 ft / 706 m (AMSL)
Location 60.712191° -135.067108°
Runways 3
Magnetic Variation 19.535° E

METAR

CYXY 232100Z 11004KT 090V180 40SM FEW060 SCT230 13/M04 A2977 RMK CU2CI1 SLP105 DENSITY ALT 2800FT

Decode

TAF

TAF CYXY 231738Z 2318/2418 16010KT P6SM FEW040 FM232000 17010G20KT P6SM SCT070 TEMPO 2320/2406 BKN070 FM240600 16005KT P6SM FEW080 SCT140 RMK NXT FCST BY 240000Z

Decode

Departure Runways

ID Width Length Bearing (true) Bearing (mag) Surface Threshold Offset Overrun Length
01 75 ft / 23 m 2,070 ft / 631 m 31.99° 12.45° Asphalt 335 ft / 102 m 0 ft / 0 m
13L 80 ft / 24 m 3,922 ft / 1,195 m 158.54° 139.00° Asphalt 0 ft / 0 m 0 ft / 0 m
13R 150 ft / 46 m 9,469 ft / 2,886 m 159.27° 139.73° Asphalt 850 ft / 259 m 100 ft / 30 m
19 75 ft / 23 m 2,070 ft / 631 m 212.00° 192.46° Asphalt 0 ft / 0 m 0 ft / 0 m
31L 150 ft / 46 m 9,469 ft / 2,886 m 339.29° 319.75° Asphalt 1,400 ft / 427 m 100 ft / 30 m
31R 80 ft / 24 m 3,922 ft / 1,195 m 338.54° 319.00° Asphalt 0 ft / 0 m 0 ft / 0 m

PAJN

Details ICAO PAJN (JNU)
Name Juneau Intl
Region USA (Alaska)
Timezone America/Juneau (UTC-8.0)
Stats Elevation 21 ft / 6 m (AMSL)
Location 58.354964° -134.576278°
Runways 1
Magnetic Variation 19.020° E

METAR

PAJN 232053Z 24012KT 10SM FEW038 BKN075 OVC230 13/06 A2984

Decode

TAF

PAJN 231722Z 2318/2418 24008KT P6SM SCT004 BKN070 FM240300 13006KT P6SM VCSH BKN045 BKN080 FM240600 10006KT P6SM -SHRA SCT025 OVC040

Decode

Destination Runways

ID Width Length Bearing (true) Bearing (mag) Surface Threshold Offset Overrun Length
08 150 ft / 46 m 8,430 ft / 2,570 m 104.87° 85.85° Asphalt 0 ft / 0 m 450 ft / 137 m
26 150 ft / 46 m 8,430 ft / 2,570 m 284.90° 265.88° Asphalt 0 ft / 0 m 225 ft / 69 m

Approach Navaids

Runway Type Ident Frequency Range Bearing (true) Bearing (mag) Slope Elevation
08 Localiser IJDL 109.90 MHz 18 nm / 33 km 84.92° 65.90° - 21 ft / 6 m (AMSL)
08 DME IJDL 109.90 MHz 18 nm / 33 km - - - 175 ft / 53 m (AMSL)

Popular Alternatives